S51BR Weather Reports


time (UTC)temp
F
wind
direction
speed
knots
gust
knots
rain 1hr
in
rain 24hr
in
rain mn
in
humidity
%
barometer
mb
20260506121003 59 344 0.9 5.2 0.00 0.00 0.00 74 1012.0
20260506120503 59 199 1.7 3.5 0.00 0.00 0.00 74 1012.0
20260506120017 59 197 1.7 3.5 0.00 0.00 0.00 74 1012.0
20260506115509 59 319 0.9 3.5 0.00 0.00 0.00 75 1011.9
20260506115007 59 286 0.9 2.6 0.00 0.00 0.00 74 1012.0
20260506114521 59 321 0.9 2.6 0.00 0.00 0.00 73 1011.9
20260506114008 59 312 0.9 1.7 0.00 0.00 0.00 76 1012.1
20260506113511 59 160 0.0 3.5 0.00 0.00 0.00 76 1012.1
20260506113023 59 195 0.9 3.5 0.00 0.00 0.00 74 1012.2
20260506112512 59 328 0.9 5.2 0.00 0.00 0.00 74 1012.2
20260506112009 59 333 1.7 5.2 0.00 0.00 0.00 73 1012.3
20260506111529 59 356 0.9 5.2 0.00 0.00 0.00 73 1012.3
20260506111007 60 307 1.7 3.5 0.00 0.00 0.00 72 1012.2
20260506110507 60 357 1.7 3.5 0.00 0.00 0.00 72 1012.3
20260506110013 60 173 0.9 3.5 0.00 0.00 0.00 72 1012.4
20260506105509 60 197 1.7 3.5 0.00 0.00 0.00 71 1012.4
20260506105005 59 316 0.9 3.5 0.00 0.00 0.00 72 1012.4
20260506104518 59 181 1.7 3.5 0.00 0.00 0.00 72 1012.4
20260506104008 59 207 1.7 3.5 0.00 0.00 0.00 72 1012.5
20260506103508 59 292 0.9 5.2 0.00 0.00 0.00 73 1012.7
20260506103023 59 205 1.7 5.2 0.00 0.00 0.00 71 1012.6
20260506102510 59 189 0.9 4.3 0.00 0.00 0.00 73 1012.7
20260506102009 60 172 1.7 3.5 0.00 0.00 0.00 73 1012.7
20260506101526 60 160 1.7 3.5 0.00 0.00 0.00 73 1012.8
20260506101015 59 193 1.7 3.5 0.00 0.00 0.00 73 1012.7
20260506100509 59 211 0.9 3.5 0.00 0.00 0.00 73 1012.8
20260506100027 58 318 0.9 3.5 0.00 0.00 0.00 73 1012.9
20260506095511 58 194 0.9 3.5 0.00 0.00 0.00 74 1012.9
20260506095005 58 1 0.9 3.5 0.00 0.00 0.00 75 1012.9
20260506094515 58 186 0.9 1.7 0.00 0.00 0.00 77 1012.9
20260506094009 58 176 0.9 1.7 0.00 0.00 0.00 78 1012.9
20260506093510 58 23 0.9 6.1 0.00 0.00 0.00 77 1012.9
20260506093034 58 25 2.6 6.1 0.00 0.00 0.00 76 1012.8
20260506092507 57 214 0.9 3.5 0.00 0.00 0.00 77 1012.7
20260506092009 57 202 1.7 4.3 0.00 0.00 0.00 77 1012.8
20260506091524 57 11 1.7 4.3 0.00 0.00 0.00 78 1012.9
20260506091009 57 210 1.7 4.3 0.00 0.00 0.00 79 1012.9
20260506090510 57 295 1.7 4.3 0.00 0.00 0.00 78 1013.0
20260506090025 57 3 1.7 4.3 0.00 0.00 0.00 78 1013.0
20260506085508 58 266 1.7 6.1 0.00 0.00 0.00 77 1013.0
20260506085009 58 349 1.7 6.1 0.00 0.00 0.00 76 1013.0
20260506084527 59 198 1.7 4.3 0.00 0.00 0.00 75 1012.9
20260506084012 59 288 1.7 5.2 0.00 0.00 0.00 74 1012.7
20260506083509 59 323 1.7 5.2 0.00 0.00 0.00 74 1012.6
20260506083017 60 303 1.7 3.5 0.00 0.00 0.00 74 1012.5
20260506082511 60 305 0.9 3.5 0.00 0.00 0.00 75 1012.5
20260506082012 60 335 0.9 2.6 0.00 0.00 0.00 76 1012.3
20260506081522 60 315 0.9 2.6 0.00 0.00 0.00 75 1012.3
20260506081013 60 81 0.9 1.7 0.00 0.00 0.00 76 1012.2
20260506080509 60 8 0.9 1.7 0.00 0.00 0.00 77 1012.2
20260506073512 60 313 0.0 2.6 0.00 0.00 0.00 74 1012.2
20260506073027 60 345 0.9 2.6 0.00 0.00 0.00 73 1012.3
20260506072507 61 305 0.9 2.6 0.00 0.00 0.00 75 1012.3
20260506072015 60 18 0.9 2.6 0.00 0.00 0.00 76 1012.3
20260506071518 59 252 0.9 3.5 0.00 0.00 0.00 77 1012.3
20260506071006 58 357 0.9 3.5 0.00 0.00 0.00 79 1012.5
20260506070510 57 29 0.9 1.7 0.00 0.00 0.00 82 1012.5
20260506062507 55 165 0.0 0.9 0.00 0.00 0.00 83 1012.5
20260506062011 55 109 0.0 0.9 0.00 0.00 0.00 83 1012.4
20260506061514 55 106 0.0 1.7 0.00 0.00 0.00 83 1012.4
20260506061007 55 151 0.0 1.7 0.00 0.00 0.00 83 1012.4
20260506060507 55 150 0.0 0.9 0.00 0.00 0.00 82 1012.4
20260506051008 53 120 0.0 0.9 0.00 0.00 0.00 84 1012.1
20260506050507 53 120 0.0 0.9 0.00 0.00 0.00 84 1012.2
20260506045007 52 120 0.0 0.9 0.00 0.00 0.00 85 1012.2
20260506044521 52 120 0.0 0.9 0.00 0.00 0.00 85 1012.2
20260506044003 52 120 0.0 1.7 0.00 0.00 0.00 85 1012.1
20260506043506 52 120 0.0 1.7 0.00 0.00 0.00 85 1012.0
20260506043010 52 120 0.0 0.9 0.00 0.00 0.00 86 1012.0
20260506042504 52 120 0.0 0.9 0.00 0.00 0.00 85 1011.9
20260506042004 52 120 0.0 0.9 0.00 0.00 0.00 85 1012.0
20260506041509 52 120 0.0 0.9 0.00 0.00 0.00 85 1011.9
20260506041004 52 120 0.0 0.9 0.00 0.00 0.00 84 1011.9
20260506040511 52 120 0.0 0.9 0.00 0.00 0.00 84 1011.9
20260506040018 52 120 0.0 0.9 0.00 0.00 0.00 84 1011.9
20260506035508 51 120 0.0 0.9 0.00 0.00 0.00 84 1011.8
20260506035005 51 120 0.0 0.9 0.00 0.00 0.00 84 1011.8
20260506034518 51 120 0.0 1.7 0.00 0.00 0.00 83 1011.8
20260506034009 52 120 0.0 1.7 0.00 0.00 0.00 83 1011.8
20260506033507 52 120 0.0 0.9 0.00 0.00 0.00 83 1012.0
20260506033025 52 120 0.0 0.9 0.00 0.00 0.00 83 1012.1
20260506032504 52 120 0.0 0.9 0.00 0.00 0.00 82 1012.0
20260506032006 52 120 0.0 0.9 0.00 0.00 0.00 82 1011.9
20260506031507 52 120 0.0 0.9 0.00 0.00 0.00 82 1012.0
20260506031005 52 120 0.0 1.7 0.00 0.00 0.00 82 1012.0
20260506030504 52 120 0.0 1.7 0.00 0.00 0.00 81 1012.0
20260506030012 53 90 0.0 0.9 0.00 0.00 0.00 81 1012.1
20260506025511 53 82 0.0 0.9 0.00 0.00 0.00 80 1012.0
20260506025008 53 82 0.0 0.9 0.00 0.00 0.00 80 1012.1
20260506024517 53 82 0.0 0.9 0.00 0.00 0.00 80 1012.2
20260506024010 53 82 0.0 0.9 0.00 0.00 0.00 80 1012.2
20260506023511 53 82 0.0 0.9 0.00 0.00 0.00 80 1012.2
20260506023022 53 82 0.0 0.9 0.00 0.00 0.00 80 1012.3
20260506022509 53 82 0.0 0.9 0.00 0.00 0.00 80 1012.3
20260506022008 53 82 0.0 0.0 0.00 0.00 0.00 79 1012.3
20260506021525 53 82 0.0 0.0 0.00 0.00 0.00 80 1012.3
20260506021004 54 82 0.0 0.9 0.00 0.00 0.00 79 1012.4
20260506020504 54 82 0.0 0.9 0.00 0.00 0.00 79 1012.4
20260506020011 53 82 0.0 0.9 0.00 0.00 0.00 79 1012.3
20260506015505 53 82 0.0 0.0 0.00 0.00 0.00 80 1012.3
20260506015005 53 82 0.0 0.9 0.00 0.00 0.00 80 1012.2
20260506014514 53 82 0.0 0.9 0.00 0.00 0.00 81 1012.2
20260506014007 53 82 0.0 0.9 0.00 0.00 0.00 81 1012.1
20260506013511 53 82 0.0 0.9 0.00 0.00 0.00 81 1012.1
20260506013021 53 77 0.0 1.7 0.00 0.00 0.00 82 1012.1
20260506012509 53 77 0.0 1.7 0.00 0.00 0.00 83 1012.1
20260506012009 53 105 0.0 0.0 0.00 0.00 0.00 82 1012.0
20260506011526 53 105 0.0 0.9 0.00 0.00 0.00 83 1012.1
20260506011008 53 105 0.0 0.9 0.00 0.00 0.00 82 1012.1
20260506010509 52 105 0.0 0.9 0.00 0.00 0.00 83 1012.1
20260506010029 52 90 0.9 0.9 0.00 0.00 0.00 84 1012.1
20260506005507 52 90 0.0 0.9 0.00 0.00 0.00 83 1012.0
20260506005006 52 90 0.0 0.9 0.00 0.00 0.00 83 1012.0
20260506004521 52 90 0.0 0.9 0.00 0.00 0.00 83 1012.0
20260506004006 52 90 0.0 0.9 0.00 0.00 0.00 83 1011.9
20260506003507 52 90 0.0 0.9 0.00 0.00 0.00 83 1012.0
20260506003019 52 90 0.0 0.9 0.00 0.00 0.00 83 1012.0
20260506002509 52 90 0.0 0.9 0.00 0.00 0.00 83 1012.1
20260506002009 52 90 0.0 0.9 0.00 0.00 0.00 83 1012.2
20260506001521 52 90 0.0 0.9 0.00 0.00 0.00 83 1012.2
20260506001007 52 90 0.0 0.9 0.00 0.00 0.00 82 1012.3
20260506000507 52 90 0.0 0.9 0.00 0.00 0.00 82 1012.2
20260506000041 52 90 0.0 0.9 0.00 0.00 0.00 81 1012.2
20260505235507 52 90 0.0 0.9 0.00 0.00 0.00 81 1012.3
20260505235011 52 90 0.0 0.9 0.00 0.00 0.00 81 1012.3
20260505234512 52 90 0.0 0.9 0.00 0.00 0.00 81 1012.3
20260505234005 52 90 0.0 0.9 0.00 0.00 0.00 81 1012.1
20260505233505 52 90 0.0 0.9 0.00 0.00 0.00 81 1012.2
20260505233013 52 90 0.0 0.9 0.00 0.00 0.00 81 1012.4
20260505232505 52 90 0.0 0.9 0.00 0.00 0.00 81 1012.4
20260505232006 52 90 0.0 0.9 0.00 0.00 0.00 82 1012.5
20260505231516 52 90 0.0 0.9 0.00 0.00 0.00 82 1012.5
20260505231006 52 90 0.0 0.9 0.00 0.00 0.00 82 1012.7
20260505230506 51 90 0.0 0.9 0.00 0.00 0.00 82 1012.7
20260505230034 51 63 0.0 0.9 0.00 0.00 0.00 82 1012.7
20260505225510 52 63 0.0 0.9 0.00 0.00 0.00 81 1012.7
20260505225007 52 23 0.0 0.0 0.00 0.00 0.00 81 1012.7
20260505224527 52 23 0.0 0.9 0.00 0.00 0.00 81 1012.7
20260505224010 52 23 0.0 0.9 0.00 0.00 0.00 81 1012.7
20260505223511 52 23 0.0 1.7 0.00 0.00 0.00 81 1012.8
20260505223011 52 23 0.0 1.7 0.00 0.00 0.00 81 1012.7
20260505222508 52 48 0.9 1.7 0.00 0.00 0.00 81 1012.8
20260505222010 52 47 0.0 2.6 0.00 0.00 0.00 81 1012.8
20260505221516 52 48 0.0 2.6 0.00 0.00 0.00 81 1012.8
20260505221006 52 29 0.0 1.7 0.00 0.00 0.00 81 1012.9
20260505220506 53 28 0.0 2.6 0.00 0.00 0.00 81 1012.9
20260505220022 53 79 0.0 3.5 0.00 0.00 0.00 81 1012.9
20260505215508 53 17 0.9 3.5 0.00 0.00 0.00 81 1013.0
20260505215007 53 14 0.9 3.5 0.00 0.00 0.00 81 1013.0
20260505214524 53 36 0.9 2.6 0.00 0.00 0.00 81 1013.0
20260505214001 53 30 0.9 2.6 0.00 0.00 0.00 81 1013.1
20260505213503 52 14 0.9 2.6 0.00 0.00 0.00 82 1013.1
20260505213021 52 44 0.9 2.6 0.00 0.00 0.00 83 1013.1
20260505212506 52 49 0.9 1.7 0.00 0.00 0.00 82 1013.2
20260505212005 52 13 0.0 1.7 0.00 0.00 0.00 82 1013.2
20260505211510 53 33 0.0 3.5 0.00 0.00 0.00 81 1013.2
20260505211004 53 32 0.9 3.5 0.00 0.00 0.00 81 1013.3
20260505210503 53 1 0.0 1.7 0.00 0.00 0.00 80 1013.3
20260505210020 53 39 0.0 1.7 0.00 0.00 0.00 80 1013.4
20260505205504 53 37 0.0 1.7 0.00 0.00 0.00 81 1013.4
20260505205005 53 75 0.0 0.9 0.00 0.00 0.00 80 1013.4
20260505204508 53 53 0.0 0.9 0.00 0.00 0.00 79 1013.4
20260505204003 53 53 0.0 0.9 0.00 0.00 0.00 79 1013.4
20260505203503 53 42 0.0 1.7 0.00 0.00 0.00 79 1013.3
20260505203013 53 42 0.0 1.7 0.00 0.00 0.00 79 1013.4
20260505202503 53 11 0.0 1.7 0.00 0.00 0.00 79 1013.4
20260505202004 54 34 0.9 3.5 0.00 0.00 0.00 78 1013.4
20260505201507 54 314 1.7 3.5 0.00 0.00 0.00 78 1013.4
20260505201003 54 244 0.9 3.5 0.00 0.00 0.00 78 1013.2
20260505200505 54 6 0.9 3.5 0.00 0.00 0.00 78 1013.4
20260505200019 54 338 0.0 2.6 0.00 0.00 0.00 78 1013.4
20260505195503 55 21 0.9 2.6 0.00 0.00 0.00 78 1013.4
20260505195006 55 34 0.9 2.6 0.00 0.00 0.00 78 1013.4
20260505194508 55 326 0.9 1.7 0.00 0.00 0.00 78 1013.4
20260505194006 55 11 0.0 1.7 0.00 0.00 0.00 78 1013.3
20260505193507 55 33 0.0 2.6 0.00 0.00 0.00 77 1013.4
20260505193022 55 33 0.9 2.6 0.00 0.00 0.00 77 1013.2
20260505192507 55 31 0.0 1.7 0.00 0.00 0.00 76 1013.1
20260505192003 56 37 0.9 1.7 0.00 0.00 0.00 75 1013.1
20260505191512 56 320 0.9 1.7 0.00 0.00 0.00 75 1013.1
20260505191004 56 48 0.0 0.9 0.00 0.00 0.00 75 1013.1
20260505190504 56 48 0.0 0.9 0.00 0.00 0.00 74 1013.1
20260505190010 56 48 0.0 0.9 0.00 0.00 0.00 74 1013.0
20260505185506 56 49 0.0 0.9 0.00 0.00 0.00 74 1013.0
20260505185005 56 35 0.0 0.9 0.00 0.00 0.00 73 1012.9
20260505184510 56 35 0.0 1.7 0.00 0.00 0.00 73 1012.9
20260505184004 56 35 0.0 1.7 0.00 0.00 0.00 72 1012.9
20260505183507 56 32 0.0 1.7 0.00 0.00 0.00 72 1012.8
20260505183013 56 32 0.0 1.7 0.00 0.00 0.00 72 1012.8
20260505182504 56 37 0.9 1.7 0.00 0.00 0.00 72 1012.8
20260505182007 56 14 0.9 1.7 0.00 0.00 0.00 72 1012.8
20260505181512 56 42 0.0 0.9 0.00 0.00 0.00 71 1012.8
20260505181004 57 44 0.0 1.7 0.00 0.00 0.00 71 1012.8
20260505180503 57 1 0.0 1.7 0.00 0.00 0.00 71 1012.8
20260505180008 57 30 0.0 2.6 0.00 0.00 0.00 71 1012.9
20260505175504 57 21 0.9 2.6 0.00 0.00 0.00 70 1012.9
20260505175004 57 20 0.9 1.7 0.00 0.00 0.00 70 1012.9
20260505174508 56 23 0.9 1.7 0.00 0.00 0.00 70 1012.9
20260505174010 57 33 0.0 0.0 0.00 0.00 0.00 71 1012.9
20260505173506 57 33 0.0 0.9 0.00 0.00 0.00 71 1012.9
20260505173020 57 33 0.0 0.9 0.00 0.00 0.00 70 1013.0
20260505172509 57 33 0.0 1.7 0.00 0.00 0.00 70 1012.9
20260505172007 57 33 0.9 1.7 0.00 0.00 0.00 69 1013.0
20260505171517 57 34 0.0 0.9 0.00 0.00 0.00 69 1013.0
20260505171006 57 34 0.0 0.9 0.00 0.00 0.00 70 1013.0
20260505170506 57 34 0.0 1.7 0.00 0.00 0.00 70 1013.0
20260505170023 57 35 0.9 2.6 0.00 0.00 0.00 69 1013.0
20260505165507 57 38 0.9 2.6 0.00 0.00 0.00 69 1013.0
20260505165003 57 34 0.0 3.5 0.00 0.00 0.00 69 1013.1
20260505164510 57 8 0.9 3.5 0.00 0.00 0.00 68 1013.1
20260505164005 57 29 0.9 3.5 0.00 0.00 0.00 68 1013.1
20260505163506 57 344 1.7 3.5 0.00 0.00 0.00 69 1013.1
20260505163011 57 319 0.9 3.5 0.00 0.00 0.00 68 1013.1
20260505162505 57 198 1.7 3.5 0.00 0.00 0.00 69 1013.2
20260505162007 57 322 0.9 5.2 0.00 0.00 0.00 68 1013.2
20260505161514 58 1 1.7 5.2 0.00 0.00 0.00 68 1013.2
20260505161007 58 9 2.6 5.2 0.00 0.00 0.00 68 1013.2
20260505160511 58 323 1.7 7.0 0.00 0.00 0.00 67 1013.3
20260505153016 58 355 0.9 5.2 0.00 0.00 0.00 65 1013.4
20260505152507 58 321 1.7 5.2 0.00 0.00 0.00 65 1013.4
20260505152011 58 303 1.7 4.3 0.00 0.00 0.00 64 1013.4
20260505151512 58 345 1.7 4.3 0.00 0.00 0.00 64 1013.5
20260505151006 58 311 2.6 7.0 0.00 0.00 0.00 64 1013.5
20260505150506 58 14 2.6 7.8 0.00 0.00 0.00 64 1013.5
20260505140505 60 47 3.5 7.0 0.00 0.00 0.00 59 1013.8
20260505125008 63 314 0.9 3.5 0.00 0.00 0.00 61 1014.2
20260505124516 63 348 0.9 3.5 0.00 0.00 0.00 63 1014.3
20260505124007 63 359 0.9 3.5 0.00 0.00 0.00 62 1014.3
20260505123509 63 348 2.6 3.5 0.00 0.00 0.00 63 1014.3
20260505123032 63 13 0.9 2.6 0.00 0.00 0.00 64 1014.4
20260505122503 62 226 1.7 4.3 0.00 0.00 0.00 66 1014.4
20260505122004 61 1 1.7 4.3 0.00 0.00 0.00 69 1014.4
20260505121510 60 242 0.9 2.6 0.00 0.00 0.00 67 1014.4